Location: Prague
(50.0830°N, 14.4670°E)
Time: 03:00:04
(UTC+01:00)

AO-7 - Pass Details

Date: 11 December 2021
Orbit: 1440 x 1459 km, 101.9° (Epoch: 28 January)

Event Time Altitude Azimuth Distance (km) Brightness Sun altitude
Rises 05:14:02 0° 18° (NNE) 4,551 ? -23.9°
Reaches altitude 10° 05:16:49 10° 17° (NNE) 3,572 ? -23.5°
Maximum altitude 05:25:04 69° 296° (WNW) 1,538 ? -22.2°
Drops below altitude 10° 05:33:18 10° 216° (SW) 3,567 ? -20.9°
Sets 05:36:05 0° 214° (SW) 4,545 ? -20.5°
